When you browse on this site, cookies collect data to enhance your experience and personalize the content and advertising you see.
Visit our Privacy Policy to learn more. By continuing to use the site, you agree to this use of cookies and data.
  • In Sweden
  • List of Countries
  • For 7 days
  • Water Temperature
  • Weather Map
  • Weather Widgets
  • user-avatar
    Login

    Hourly Weather Pusztavám

    Today, 24 February, Monday

    Time Temperature Precipitation Wind Pressure Humidity
    00:00 +10°C° 0 mm 7 mps 736 mmHg 67%
    01:00 +11°C° 0 mm 7 mps 735 mmHg 68%
    02:00 +10°C° 0.3 mm 8 mps 736 mmHg 68%
    03:00 +7°C° 0.3 mm 9 mps 737 mmHg 68%
    04:00 +6°C° 0.3 mm 10 mps 738 mmHg 68%
    05:00 +5°C° 0 mm 9 mps 740 mmHg 65%
    06:00 +4°C° 0 mm 8 mps 741 mmHg 63%
    07:00 +3°C° 0 mm 7 mps 742 mmHg 62%
    08:00 +4°C° 0 mm 7 mps 743 mmHg 59%
    09:00 +4°C° 0 mm 7 mps 744 mmHg 57%
    10:00 +5°C° 0 mm 7 mps 745 mmHg 54%
    11:00 +5°C° 0 mm 7 mps 745 mmHg 52%
    12:00 +7°C° 0 mm 6 mps 745 mmHg 50%
    13:00 +7°C° 0 mm 5 mps 745 mmHg 48%
    14:00 +7°C° 0 mm 5 mps 745 mmHg 48%
    15:00 +7°C° 0 mm 4 mps 744 mmHg 48%
    16:00 +8°C° 0 mm 3 mps 744 mmHg 48%
    17:00 +8°C° 0 mm 3 mps 743 mmHg 53%
    18:00 +7°C° 0 mm 2 mps 743 mmHg 58%
    19:00 +6°C° 0 mm 2 mps 742 mmHg 63%
    20:00 +5°C° 0 mm 3 mps 742 mmHg 62%
    21:00 +5°C° 0 mm 3 mps 742 mmHg 62%
    22:00 +5°C° 0 mm 4 mps 741 mmHg 62%
    23:00 +5°C° 0 mm 4 mps 741 mmHg 61%

    Tomorrow, 25 February, Tuesday

    Time Temperature Precipitation Wind Pressure Humidity
    00:00 +5°C° 0 mm 4 mps 740 mmHg 60%
    01:00 +5°C° 0 mm 5 mps 739 mmHg 60%
    02:00 +3°C° 0 mm 5 mps 739 mmHg 61%
    03:00 +4°C° 0 mm 4 mps 738 mmHg 62%
    04:00 +3°C° 0 mm 4 mps 737 mmHg 63%
    05:00 +3°C° 0 mm 4 mps 737 mmHg 66%
    06:00 +3°C° 0 mm 3 mps 737 mmHg 68%
    07:00 +3°C° 0 mm 3 mps 736 mmHg 70%
    08:00 +5°C° 0 mm 3 mps 736 mmHg 67%
    09:00 +8°C° 0 mm 3 mps 736 mmHg 64%
    10:00 +10°C° 0 mm 3 mps 735 mmHg 61%
    11:00 +11°C° 0 mm 4 mps 735 mmHg 61%
    12:00 +12°C° 0 mm 4 mps 734 mmHg 60%
    13:00 +13°C° 0 mm 5 mps 734 mmHg 60%
    14:00 +12°C° 0 mm 5 mps 733 mmHg 64%
    15:00 +11°C° 0 mm 4 mps 732 mmHg 68%
    16:00 +10°C° 0 mm 4 mps 731 mmHg 72%
    17:00 +10°C° 0 mm 4 mps 731 mmHg 75%
    18:00 +9°C° 0 mm 3 mps 731 mmHg 79%
    19:00 +9°C° 0 mm 3 mps 731 mmHg 82%
    20:00 +9°C° 0.1 mm 2 mps 730 mmHg 83%
    21:00 +8°C° 0.1 mm 2 mps 730 mmHg 84%
    22:00 +8°C° 0.1 mm 2 mps 730 mmHg 85%
    23:00 +8°C° 0.8 mm 2 mps 729 mmHg 87%

    Day after tomorrow, 26 February, Wednesday

    Time Temperature Precipitation Wind Pressure Humidity
    00:00 +8°C° 0.8 mm 2 mps 728 mmHg 88%
    01:00 +8°C° 0.8 mm 3 mps 728 mmHg 89%
    02:00 +8°C° 1.2 mm 3 mps 727 mmHg 90%
    03:00 +7°C° 1.2 mm 3 mps 727 mmHg 91%
    04:00 +7°C° 1.2 mm 3 mps 726 mmHg 92%
    05:00 +7°C° 0.7 mm 3 mps 726 mmHg 91%
    06:00 +6°C° 0.7 mm 2 mps 726 mmHg 90%
    07:00 +6°C° 0.7 mm 2 mps 726 mmHg 90%
    08:00 +7°C° 0 mm 3 mps 726 mmHg 83%
    09:00 +6°C° 0 mm 4 mps 726 mmHg 75%
    10:00 +5°C° 0 mm 6 mps 726 mmHg 68%
    11:00 +5°C° 0 mm 6 mps 726 mmHg 66%
    12:00 +5°C° 0 mm 6 mps 726 mmHg 63%
    13:00 +5°C° 0 mm 7 mps 726 mmHg 61%
    14:00 +5°C° 0 mm 7 mps 726 mmHg 60%
    15:00 +4°C° 0 mm 7 mps 726 mmHg 60%
    16:00 +4°C° 0 mm 7 mps 726 mmHg 59%
    17:00 +3°C° 0 mm 6 mps 726 mmHg 59%
    18:00 +3°C° 0 mm 5 mps 726 mmHg 60%
    19:00 +2°C° 0 mm 5 mps 726 mmHg 60%
    20:00 +2°C° 0 mm 5 mps 727 mmHg 60%
    21:00 +2°C° 0 mm 5 mps 727 mmHg 60%
    22:00 +1°C° 0 mm 6 mps 728 mmHg 59%
    23:00 +1°C° 0 mm 6 mps 728 mmHg 63%

    27 February, Thursday

    Time Temperature Precipitation Wind Pressure Humidity
    00:00 +1°C° 0 mm 6 mps 728 mmHg 66%
    01:00 -1°C° 0 mm 7 mps 729 mmHg 69%
    02:00 -1°C° 0 mm 7 mps 729 mmHg 70%
    03:00 -1°C° 0 mm 7 mps 729 mmHg 71%
    04:00 -1°C° 0 mm 8 mps 729 mmHg 72%
    05:00 -2°C° 0 mm 7 mps 730 mmHg 73%
    06:00 -2°C° 0 mm 6 mps 731 mmHg 74%
    07:00 -2°C° 0 mm 6 mps 731 mmHg 75%
    08:00 -1°C° 0 mm 7 mps 732 mmHg 70%
    09:00 0°C° 0 mm 8 mps 732 mmHg 65%
    10:00 +1°C° 0 mm 10 mps 733 mmHg 60%
    11:00 +2°C° 0 mm 9 mps 733 mmHg 58%
    12:00 +2°C° 0 mm 9 mps 733 mmHg 57%
    13:00 +3°C° 0 mm 9 mps 733 mmHg 55%
    14:00 +4°C° 0.1 mm 8 mps 734 mmHg 54%
    15:00 +4°C° 0.1 mm 8 mps 734 mmHg 53%
    16:00 +4°C° 0.1 mm 7 mps 734 mmHg 53%
    17:00 +3°C° 0 mm 6 mps 734 mmHg 57%
    18:00 +3°C° 0 mm 4 mps 734 mmHg 61%
    19:00 +2°C° 0 mm 3 mps 734 mmHg 65%
    20:00 +1°C° 0 mm 3 mps 734 mmHg 65%
    21:00 +2°C° 0 mm 2 mps 734 mmHg 65%
    22:00 +2°C° 0 mm 2 mps 734 mmHg 65%
    23:00 +2°C° 0 mm 2 mps 733 mmHg 65%

    28 February, Friday

    Time Temperature Precipitation Wind Pressure Humidity
    00:00 +2°C° 0 mm 2 mps 733 mmHg 64%
    01:00 +2°C° 0 mm 2 mps 732 mmHg 64%
    02:00 +2°C° 0 mm 2 mps 732 mmHg 70%
    03:00 +1°C° 0 mm 2 mps 732 mmHg 76%
    04:00 +1°C° 0 mm 2 mps 731 mmHg 82%
    05:00 +1°C° 0 mm 2 mps 732 mmHg 85%
    06:00 +1°C° 0 mm 2 mps 732 mmHg 88%
    07:00 +1°C° 0 mm 2 mps 733 mmHg 90%
    08:00 0°C° 0 mm 4 mps 734 mmHg 79%
    09:00 +1°C° 0 mm 5 mps 735 mmHg 67%
    10:00 +2°C° 0 mm 7 mps 736 mmHg 55%
    11:00 +3°C° 0 mm 7 mps 737 mmHg 53%
    12:00 +4°C° 0 mm 7 mps 737 mmHg 51%
    13:00 +4°C° 0 mm 7 mps 738 mmHg 49%
    14:00 +4°C° 0 mm 6 mps 738 mmHg 51%
    15:00 +5°C° 0 mm 5 mps 738 mmHg 53%
    16:00 +5°C° 0 mm 4 mps 738 mmHg 55%
    17:00 +4°C° 0 mm 4 mps 739 mmHg 61%
    18:00 +3°C° 0 mm 3 mps 739 mmHg 68%
    19:00 +3°C° 0 mm 2 mps 739 mmHg 74%
    20:00 +3°C° 0 mm 2 mps 739 mmHg 76%
    21:00 +3°C° 0 mm 2 mps 739 mmHg 77%
    22:00 +3°C° 0 mm 2 mps 739 mmHg 79%
    23:00 +3°C° 0 mm 2 mps 739 mmHg 79%

    29 February, Saturday

    Time Temperature Precipitation Wind Pressure Humidity
    00:00 +3°C° 0 mm 2 mps 738 mmHg 78%
    01:00 +2°C° 0 mm 3 mps 737 mmHg 78%
    02:00 +2°C° 0 mm 3 mps 737 mmHg 74%
    03:00 +1°C° 0 mm 4 mps 736 mmHg 71%
    04:00 +2°C° 0 mm 5 mps 735 mmHg 68%
    05:00 +2°C° 0.1 mm 5 mps 735 mmHg 70%
    06:00 +2°C° 0.1 mm 5 mps 734 mmHg 72%
    07:00 +2°C° 0.1 mm 5 mps 734 mmHg 74%
    08:00 +3°C° 0.3 mm 5 mps 734 mmHg 76%
    09:00 +5°C° 0.3 mm 5 mps 734 mmHg 78%
    10:00 +6°C° 0.3 mm 5 mps 733 mmHg 79%
    11:00 +8°C° 0 mm 6 mps 733 mmHg 76%
    12:00 +9°C° 0 mm 6 mps 732 mmHg 72%
    13:00 +11°C° 0 mm 7 mps 732 mmHg 69%
    14:00 +11°C° 0 mm 7 mps 731 mmHg 68%
    15:00 +13°C° 0 mm 6 mps 730 mmHg 67%
    16:00 +13°C° 0 mm 6 mps 729 mmHg 67%
    17:00 +11°C° 0 mm 6 mps 729 mmHg 71%
    18:00 +10°C° 0 mm 6 mps 728 mmHg 76%
    19:00 +9°C° 0 mm 6 mps 727 mmHg 80%
    20:00 +9°C° 0 mm 7 mps 727 mmHg 79%
    21:00 +9°C° 0 mm 7 mps 727 mmHg 78%
    22:00 +9°C° 0 mm 8 mps 727 mmHg 77%
    23:00 +7°C° 0.5 mm 8 mps 728 mmHg 74%
    Show more